Location: Puketoi
(40.5833°S, 176.0167°E)
Time: 14:17:00
(UTC+00:00)

Cosmos 2061 Rocket - Pass Details

Date: 08 February 2023
Orbit: 966 x 1011 km, 82.9° (Epoch: 22 March)

Event Time Altitude Azimuth Distance (km) Brightness Sun altitude
Exits shadow 14:26:51 62° 268° (W) 1,142 4.1 -28.2°
Maximum altitude 14:27:01 62° 260° (W) 1,141 4.1 -28.2°
Drops below altitude 10° 14:33:29 10° 179° (S) 2,825 7.1 -27.5°
Sets 14:36:05 0° 175° (S) 3,781 8.0 -27.2°
